Location: Rock Island IL
(41.5000°N, 90.5500°W)
Time: 13:49:10
(UTC-06:00)

Daily predictions for brighter satellites

Satellite Brightness Start Highest point End
(mag) Time Altitude Azimuth Time Altitude Azimuth Time Altitude Azimuth
NOSS 3-1 (A) 4.1 16:48:25 10° NNW 16:56:02 80° NE 17:04:24 10° SE
CZ-3B DEB 3.1 16:54:47 10° SSE 16:57:43 24° ESE 17:03:20 10° ENE
Cosmos 1125 Rocket 3.6 16:52:57 10° S 16:58:10 64° ESE 17:03:27 10° NNE
CZ-4 R/B 1.7 16:56:20 10° SSE 17:00:22 49° ENE 17:04:24 10° N
Cosmos 1269 Rocket 4.1 16:56:35 10° NNW 17:01:53 64° ENE 17:07:08 10° SSE
ATLAS 2AS CENTAUR R/B 3.5 17:00:24 10° NNW 17:07:56 39° NE 17:15:05 10° ESE
CSL-04 Rocket 4.5 17:03:15 10° S 17:08:35 59° W 17:14:02 10° NNW
Cosmos 1812 4.4 17:06:44 10° ESE 17:09:01 15° E 17:11:18 10° NE
SL-8 Rocket 4.3 17:03:39 10° N 17:09:28 42° ENE 17:15:14 10° SE
Cosmos 2251 Rocket 4.5 17:07:20 10° N 17:11:48 26° ENE 17:16:12 10° ESE
Meteor 1-27 Rocket 4.1 17:06:33 10° SSW 17:12:25 75° W 17:18:12 10° N
YAOGAN 1 2.8 17:08:22 10° SE 17:12:31 47° ENE 17:16:42 10° N
Cosmos 1633 2.6 17:09:54 10° N 17:13:30 81° W 17:17:04 10° S
Cosmos 1300 Rocket 4.3 17:09:21 10° NNW 17:13:37 58° W 17:17:51 10° S
Abrixas 4.0 17:13:43 10° WNW 17:16:13 24° N 17:18:36 11° NE
Cosmos 1975 4.4 17:16:42 10° NE 17:19:08 15° ENE 17:21:31 10° ESE
Cosmos 2181 Rocket 4.0 17:12:57 10° S 17:19:13 70° E 17:25:36 10° NNE
Cosmos 2218 Rocket 4.4 17:13:23 10° N 17:19:21 42° ENE 17:25:12 10° SE
OTV 4 1.8 17:17:13 10° WSW 17:20:01 35° S 17:22:47 10° ESE
Cosmos 1844 Rocket 3.0 17:16:00 10° S 17:21:17 46° ESE 17:26:38 10° NE
MOS 1 4.3 17:16:48 10° SSE 17:22:27 76° ENE 17:28:07 10° N
Cosmos 1378 Rocket 3.9 17:20:15 10° SSW 17:24:32 69° W 17:28:50 10° N
Cosmos 1844 4.2 17:23:13 10° S 17:28:19 38° ESE 17:33:26 10° NE
SL-27 R/B 3.3 17:25:46 10° N 17:29:02 29° ENE 17:32:17 10° SE
Meteor 2-19 Rocket 4.5 17:25:37 10° N 17:31:34 55° ENE 17:37:28 10° SSE
GEOS 3 Rocket 3.9 17:27:00 10° ESE 17:31:50 45° NE 17:36:41 10° NNW
SKYMED 2 4.4 17:28:34 10° NE 17:32:23 29° E 17:36:11 10° SSE
Cosmos 1455 Rocket 3.6 17:31:24 10° N 17:35:29 36° ENE 17:39:33 10° SE
ISS -3.1 17:33:33 10° SW 17:36:47 60° SE 17:38:49 21° ENE
Cosmos 2341 Rocket 4.4 17:33:42 10° NNW 17:39:53 69° W 17:46:02 10° S
Cosmos 1295 Rocket 4.5 17:34:35 10° N 17:40:46 88° WSW 17:46:51 10° S
CORIOLIS 4.2 17:35:53 10° SSE 17:41:19 90° ENE 17:46:45 10° NNW
COSMOS 2406 3.3 17:39:21 10° NNW 17:45:06 83° WSW 17:50:50 10° SSE
Cosmos 158 Rocket 4.1 17:40:49 10° NNW 17:46:13 84° WSW 17:51:29 10° SSE
Cosmos 2278 Rocket 2.9 17:41:44 10° SSE 17:46:43 33° ESE 17:50:04 18° NE
CZ-4 R/B 4.4 17:44:35 10° SSE 17:48:43 90° SSW 17:52:54 10° NNW
SL-08 R/B 4.5 17:44:24 10° N 17:50:49 68° E 17:57:05 10° SSE
Meteor 1-5 Rocket 4.5 17:50:14 10° NNW 17:55:35 70° W 18:01:05 10° S
Cosmos 1484 Rocket 2.6 17:51:57 10° SSE 17:55:40 59° ENE 17:59:21 10° N
CZ-2C R/B 3.2 17:51:07 10° S 17:55:55 57° W 18:00:56 10° NNW
SPOT 3 Rocket 4.4 17:51:59 10° S 17:57:04 54° W 18:02:10 10° NNW
MONITOR-E 4.1 17:54:53 10° SSE 17:58:04 88° E 18:01:17 10° NNW
Cosmos 1238 Rocket 1.9 18:00:12 10° S 18:03:12 86° E 18:04:44 26° N
IDEFIX/ARIANE 42P 3.8 18:06:25 10° S 18:11:21 43° W 18:16:18 10° NNW
Cosmos 2082 Rocket 3.2 18:06:45 10° N 18:10:50 25° NE 18:10:50 25° NE
Nadezhda 3 Rocket 4.2 18:09:03 10° SSE 18:14:54 47° E 18:20:51 10° NNE
Okean 1 3.2 18:11:49 10° S 18:15:50 71° E 18:17:54 27° NNE
OPS 8737 4.1 18:12:41 10° SSW 18:16:01 72° ESE 18:16:12 69° E
Cosmos 1833 Rocket 3.9 18:14:59 10° N 18:18:13 23° NNE 18:18:13 23° NNE
COSMO-SKYMED 1 2.6 18:16:32 12° N 18:20:33 81° WNW 18:24:52 10° SSW
Cosmos 1544 Rocket 4.5 18:19:07 10° NNW 18:23:27 50° W 18:27:44 10° SSW
Meteor 2-21 4.4 18:17:20 10° N 18:23:29 63° E 18:29:34 10° SSE
Meteor 1-18 Rocket 4.4 18:21:06 10° SSW 18:26:42 73° WNW 18:32:26 10° N
Cosmos 1500 4.4 18:23:18 10° N 18:28:52 30° SSE 18:30:56 10° SSE
Meteor 1-28 Rocket 3.0 18:29:51 76° E 18:29:57 77° ESE 18:33:45 10° S
USA 234 4.4 18:29:59 19° NNE 18:33:43 32° NNW 18:39:19 10° W
METEOR-M 4.0 18:32:59 10° SSE 18:38:16 68° ENE 18:43:36 10° N
Cosmos 1346 Rocket 3.0 18:35:22 10° S 18:38:32 56° S 18:38:32 56° S
NOAA 12 4.0 18:35:52 10° SSE 18:41:10 86° ENE 18:46:28 10° NNW
Cosmos 1536 Rocket 4.4 18:38:25 10° SSW 18:42:45 51° W 18:46:25 14° N
Cosmos 1812 4.3 18:41:02 10° SW 18:44:34 34° WNW 18:47:21 15° NNW
Meteor 2-14 Rocket 4.3 18:42:17 10° N 18:48:28 73° E 18:54:35 10° SSE
NOSS 3-3 (A) 3.9 18:44:07 10° SSW 18:50:18 89° SE 18:52:24 47° NE
NOSS 3-3 (C) 3.9 18:44:13 10° SSW 18:50:23 89° SE 18:52:28 47° NE
Cosmos 1975 4.1 18:52:01 10° NNW 18:55:51 40° W 18:59:38 10° SSW
OTV 4 3.4 18:54:01 10° WSW 18:55:03 15° SW 18:55:03 15° SW
ATLAS 2AS CENTAUR R/B 3.5 18:51:29 10° NW 18:59:21 59° WSW 19:06:39 10° SSE
FALCON 9 R/B 3.4 18:40:36 10° WSW 18:59:45 53° S 19:01:52 42° SE
Meteor 2-21 Rocket 4.5 18:56:41 10° N 19:02:55 79° W 19:09:03 10° S
Cosmos 1844 Rocket 4.5 19:00:41 10° WSW 19:05:22 27° NW 19:09:11 14° N
Meteor 2-16 Rocket 4.3 19:03:17 10° N 19:09:24 85° W 19:15:28 10° S
Timation 2 Rocket 4.0 19:05:45 10° NNW 19:12:36 82° ENE 19:13:13 74° SE
Cosmos 2297 4.0 19:07:03 10° SSW 19:11:32 58° S 19:11:32 58° S
Cosmos 1535 Rocket 4.4 19:07:05 10° N 19:13:27 90° E 19:19:42 10° S
ISS -0.2 19:10:44 10° WNW 19:11:30 14° WNW 19:11:30 14° WNW
SL-24 R/B - RUBIN 2 4.4 19:09:46 10° SSW 19:15:39 78° S 19:15:39 78° S
Meteor 1-19 Rocket 4.3 19:12:15 10° SSW 19:17:46 76° WSW 19:17:46 76° WSW
ATLAS 3B CENTAUR R/B 4.0 19:08:34 10° WSW 19:20:17 31° SSW 19:22:04 28° SSE
Cosmos 2278 Rocket 3.5 19:25:34 10° SW 19:30:43 36° WNW 19:31:58 32° NNW
CZ-3B DEB 3.6 19:27:09 10° W 19:32:14 48° NNW 19:34:11 42° NNE
Cosmos 2082 Rocket 4.0 19:50:17 10° NW 19:52:44 25° NW 19:52:44 25° NW
